Sabadell Airport

Jump to: basic info | weather | runways | comments

Related pages: nearby airports | nearby navaids | notams | map

Basic information (top)

Codes: QSA LELL
Location: lon 41.520901, lat 2.105080, elev 485 ft / 148 m msl
Status: small_airport

Weather (top)

Current conditions (rec'd 2014/12/18 16:00Z):

LELL 181600Z 33006KT 290V360 CAVOK 15/09 Q1024

Airport forecast (rec'd 2014/12/18 15:36Z):

TAF LELL 182032Z 1815/1915 CNL

Runways (top)

13/31: 2,953 ft (900 m) — surface unknown — not lighted

Latest comments (top)

GA Pilots useful info: Last visit: summer 2014 Fuel: Avgas ... [read]

Great service, easy in & out: Here our expenses for 3 days in ... [read]

great service, great people: So going on a helicopter through spain ... [read]

More... (top)

See also NOTAMs and nearby airports and navaids, or visit the Sabadell Airport page at the main OurAirports website..